Hourly Data Report for October 28, 2017

VICTORIA UNIVERSITY CS
BRITISH COLUMBIA

48°27'25.200" N
123°18'16.600" W
60.10 m
1018598
71783
WYJ

Download Data

Hourly Data (October 2017)
Hourly Data Report for October 28, 2017
TIME
LST
Temp Definition
°C
Dew Point Definition
°C
Rel Hum Definition
%
Precip. Amount Definition
mm

Wind Dir Definition
10's deg

Wind Spd Definition
km/h
Visibility Definition
km
Stn Press Definition
kPa
Hmdx Definition


Wind Chill Definition


Weather Definition


00:00 11.1 7.3 77 0.0 35 5   101.13     LegendNANA
01:00 11.4 6.6 72 0.0 35 7   101.10     LegendNANA
02:00 10.6 6.9 78 0.0 35 6   101.10     LegendNANA
03:00 11.2 6.9 75 0.0 33 9   101.08     LegendNANA
04:00 11.1 6.8 75 0.0 36 9   101.04     LegendNANA
05:00 10.5 6.5 77 0.0 35 7   101.03     LegendNANA
06:00 9.7 6.5 80 0.0 1 6   101.00     LegendNANA
07:00 10.1 6.5 79 0.0 35 8   100.99     LegendNANA
08:00 10.2 7.2 82 0.0 35 6   101.00     LegendNANA
09:00 13.4 8.1 70 0.0 34 5   100.98     LegendNANA
10:00 14.2 7.6 64 0.0 1 7   100.97     LegendNANA
11:00 14.6 7.6 63 0.0 1 9   100.92     LegendNANA
12:00 16.0 8.1 59 0.0 2 6   100.84     LegendNANA
13:00 16.2 7.6 57 0.0 1 6   100.80     LegendNANA
14:00 15.7 7.6 59 0.0 2 6   100.76     LegendNANA
15:00 16.3 8.1 58 0.0 5 2   100.72     LegendNANA
16:00 13.7 8.5 71 0.0 11 1   100.70     LegendNANA
17:00 10.9 8.2 83 0.0 0 1   100.68     LegendNANA
18:00 8.9 7.7 92 0.0 26 2   100.67     LegendNANA
19:00 8.4 7.4 94 0.0 0 1   100.67     LegendNANA
20:00 9.5 8.4 93 0.0 36 5   100.69     LegendNANA
21:00 8.3 7.3 94 0.0 35 2   100.72     LegendNANA
22:00 8.5 7.7 95 0.0 35 4   100.76     LegendNANA
23:00 8.8 7.7 93 0.0 2 5   100.80     LegendNANA

Notes on Data Quality.

Legend

  • E = Estimated
  • M = Missing
  • NA = Not Available*
  • [empty] = Indicates an unobserved value
Date modified: